Montgomery, NY

7:55 PM EDT on August 22, 2017 (GMT -0400)
Orange County

Weather History for KMGJ - April, 2013

Change the Weather History Date:

Thursday, April 4, 2013

  Actual Average (KSWF) Record (KSWF)
Temperature  
Mean Temperature 40 °F -  
Max Temperature 55 °F 51 °F 77 °F (1981)
Min Temperature 26 °F 32 °F 24 °F (2016)
Degree Days  
Heating Degree Days 24    
Moisture  
Dew Point 17 °F    
Average Humidity 39    
Maximum Humidity 63    
Minimum Humidity 23    
Precipitation  
Precipitation 0.00 in - - ()
Sea Level Pressure  
Sea Level Pressure 30.21 in    
Wind  
Wind Speed 8 mph (SW)    
Max Wind Speed 15 mph    
Max Gust Speed 26 mph    
Visibility 10 miles    
Events      
Averages and records for this station are not official NWS values.
T = Trace of Precipitation, MM = Missing Value Source: NWS Daily Summary

Daily Weather History Graph

Daily Weather History Graph

Search for Another Location

Airport or City:

Trip Planner

Search our weather history database for the weather conditions in past years. The results will help you decide how hot, cold, wet, or windy it might be!

Date:

Astronomy

Apr. 04, 2013 Rise Set
Actual Time 6:34 AM EDT 7:25 PM EDT
Civil Twilight 6:06 AM EDT 7:53 PM EDT
Nautical Twilight 5:33 AM EDT 8:27 PM EDT
Astronomical Twilight 4:58 AM EDT 9:02 PM EDT
Moon 3:03 AM EDT (4/4) 1:37 PM EDT (4/4)
Length of Visible Light 13h 47m
Length of Day
12h 51m
Waning Crescent, 34% of the Moon is Illuminated
Apr 4
Waning Crescent
Apr 10
New
Apr 18
First Quarter
Apr 25
Full
May 2
Last Quarter

Hourly Weather History & Observations

Time (EDT) Temp. Windchill Dew Point Humidity Pressure Visibility Wind Dir Wind Speed Gust Speed Precip Events Conditions
12:54 AM 32.0 °F 24.2 °F 12.0 °F 44% 30.29 in 10.0 mi NNW 9.2 mph - N/A   Clear
1:54 AM 33.1 °F 23.0 °F 12.9 °F 43% 30.26 in 10.0 mi NNW 15.0 mph - N/A   Clear
2:54 AM 32.0 °F 23.0 °F 12.9 °F 45% 30.25 in 10.0 mi NW 11.5 mph 21.9 mph N/A   Clear
3:54 AM 30.9 °F 24.3 °F 12.9 °F 47% 30.29 in 10.0 mi WSW 6.9 mph - N/A   Clear
4:54 AM 30.9 °F 25.2 °F 14.0 °F 50% 30.29 in 10.0 mi WNW 5.8 mph - N/A   Clear
5:54 AM 28.9 °F 25.2 °F 14.0 °F 54% 30.33 in 10.0 mi West 3.5 mph - N/A   Clear
6:54 AM 26.1 °F 19.4 °F 15.1 °F 63% 30.36 in 10.0 mi SSW 5.8 mph - N/A   Clear
7:54 AM 30.9 °F 25.2 °F 16.0 °F 54% 30.37 in 10.0 mi Variable 5.8 mph - N/A   Clear
8:54 AM 35.1 °F - 17.1 °F 48% 30.35 in 10.0 mi Calm Calm - N/A   Clear
9:54 AM 37.0 °F 34.5 °F 16.0 °F 42% 30.34 in 10.0 mi Variable 3.5 mph - N/A   Clear
10:54 AM 39.9 °F 34.5 °F 17.1 °F 40% 30.32 in 10.0 mi SW 8.1 mph - N/A   Clear
11:54 AM 45.0 °F 41.2 °F 15.1 °F 30% 30.29 in 10.0 mi SSW 6.9 mph - N/A   Clear
12:54 PM 46.9 °F - 14.0 °F 27% 30.25 in 10.0 mi Variable 3.5 mph - N/A   Clear
1:54 PM 50.0 °F - 16.0 °F 26% 30.22 in 10.0 mi South 9.2 mph 26.5 mph N/A   Clear
2:54 PM 54.0 °F - 17.1 °F 23% 30.17 in 10.0 mi South 12.7 mph 19.6 mph N/A   Clear
3:54 PM 55.0 °F - 19.0 °F 24% 30.13 in 10.0 mi SW 13.8 mph 19.6 mph N/A   Clear
4:54 PM 55.0 °F - 17.1 °F 23% 30.10 in 10.0 mi SW 11.5 mph - N/A   Clear
5:54 PM 53.1 °F - 18.0 °F 25% 30.09 in 10.0 mi SW 11.5 mph - N/A   Clear
6:54 PM 51.1 °F - 18.0 °F 27% 30.10 in 10.0 mi SW 10.4 mph 19.6 mph N/A   Clear
7:54 PM 48.9 °F - 19.0 °F 31% 30.09 in 10.0 mi SW 10.4 mph - N/A   Clear
8:54 PM 45.0 °F 41.2 °F 21.0 °F 39% 30.08 in 10.0 mi SSW 6.9 mph - N/A   Clear
9:54 PM 45.0 °F 43.5 °F 21.0 °F 39% 30.06 in 10.0 mi South 3.5 mph - N/A   Clear
10:54 PM 42.1 °F 39.2 °F 21.0 °F 43% 30.06 in 10.0 mi SSW 4.6 mph - N/A   Clear
11:54 PM 43.0 °F 39.5 °F 21.0 °F 42% 30.03 in 10.0 mi SSW 5.8 mph - N/A   Clear